Time,TemperatureF,DewpointF,PressureIn,WindDirection,WindDirectionDegrees,WindSpeedMPH,WindSpeedGustMPH,Humidity,HourlyPrecipIn,Conditions,Clouds,dailyrainin,SoftwareType,DateUTC
2013-03-03 00:00:00,33.0,19.8,29.93,WNW,292,6.0,13.0,58,0.00,,,0.00,Weather View 32 v70,2013-03-03 05:00:00,
2013-03-03 00:05:00,33.0,19.4,29.93,NW,315,6.0,13.0,57,0.00,,,0.00,Weather View 32 v70,2013-03-03 05:05:00,
2013-03-03 00:10:00,33.0,20.2,29.93,North,360,5.0,13.0,59,0.00,,,0.00,Weather View 32 v70,2013-03-03 05:10:00,
2013-03-03 00:15:00,33.0,19.8,29.93,NNW,337,5.0,13.0,58,0.00,,,0.00,Weather View 32 v70,2013-03-03 05:15:00,
2013-03-03 00:20:00,33.0,20.2,29.93,NNW,337,4.0,13.0,59,0.00,,,0.00,Weather View 32 v70,2013-03-03 05:20:00,
2013-03-03 00:25:00,33.0,19.4,29.93,NW,315,6.0,13.0,57,0.00,,,0.00,Weather View 32 v70,2013-03-03 05:25:00,
2013-03-03 00:30:00,33.0,19.0,29.93,NNW,337,3.0,13.0,56,0.00,,,0.00,Weather View 32 v70,2013-03-03 05:30:00,
2013-03-03 00:35:00,33.0,19.0,29.93,NNW,337,4.0,13.0,56,0.00,,,0.00,Weather View 32 v70,2013-03-03 05:35:00,
2013-03-03 00:40:00,32.0,18.5,29.93,NNW,337,5.0,13.0,57,0.00,,,0.00,Weather View 32 v70,2013-03-03 05:40:00,
2013-03-03 00:45:00,32.0,18.1,29.93,NNW,337,7.0,13.0,56,0.00,,,0.00,Weather View 32 v70,2013-03-03 05:45:00,
2013-03-03 00:50:00,32.0,18.5,29.93,NW,315,4.0,13.0,57,0.00,,,0.00,Weather View 32 v70,2013-03-03 05:50:00,
2013-03-03 00:55:00,32.0,18.5,29.93,North,360,9.0,13.0,57,0.00,,,0.00,Weather View 32 v70,2013-03-03 05:55:00,
2013-03-03 01:00:00,32.0,19.3,29.93,North,360,5.0,13.0,59,0.00,,,0.00,Weather View 32 v70,2013-03-03 06:00:00,
2013-03-03 01:05:00,32.0,18.5,29.93,North,360,7.0,13.0,57,0.00,,,0.00,Weather View 32 v70,2013-03-03 06:05:00,
2013-03-03 01:10:00,32.0,18.9,29.94,North,360,0.0,13.0,58,0.00,,,0.00,Weather View 32 v70,2013-03-03 06:10:00,
2013-03-03 01:15:00,32.0,19.3,29.94,North,360,4.0,13.0,59,0.00,,,0.00,Weather View 32 v70,2013-03-03 06:15:00,
2013-03-03 01:20:00,32.0,18.9,29.94,WNW,292,3.0,13.0,58,0.00,,,0.00,Weather View 32 v70,2013-03-03 06:20:00,
2013-03-03 01:25:00,32.0,19.3,29.94,NW,315,7.0,13.0,59,0.00,,,0.00,Weather View 32 v70,2013-03-03 06:25:00,
2013-03-03 01:30:00,32.0,19.3,29.94,NNW,337,5.0,14.0,59,0.00,,,0.00,Weather View 32 v70,2013-03-03 06:30:00,
2013-03-03 01:35:00,32.0,19.3,29.94,NW,315,5.0,14.0,59,0.00,,,0.00,Weather View 32 v70,2013-03-03 06:35:00,
2013-03-03 01:40:00,32.0,19.3,29.94,WNW,292,9.0,14.0,59,0.00,,,0.00,Weather View 32 v70,2013-03-03 06:40:00,
2013-03-03 01:45:00,32.0,19.7,29.94,NW,315,6.0,14.0,60,0.00,,,0.00,Weather View 32 v70,2013-03-03 06:45:00,
2013-03-03 01:50:00,32.0,19.7,29.94,NW,315,5.0,14.0,60,0.00,,,0.00,Weather View 32 v70,2013-03-03 06:50:00,
2013-03-03 01:55:00,32.0,19.7,29.94,NW,315,8.0,14.0,60,0.00,,,0.00,Weather View 32 v70,2013-03-03 06:55:00,
2013-03-03 02:00:00,32.0,19.7,29.94,WNW,292,9.0,14.0,60,0.00,,,0.00,Weather View 32 v70,2013-03-03 07:00:00,
2013-03-03 02:05:00,32.0,19.7,29.94,NW,315,7.0,14.0,60,0.00,,,0.00,Weather View 32 v70,2013-03-03 07:05:00,
2013-03-03 02:10:00,32.0,20.4,29.94,NW,315,0.0,14.0,62,0.00,,,0.00,Weather View 32 v70,2013-03-03 07:10:00,
2013-03-03 02:15:00,32.0,20.4,29.94,WNW,292,6.0,14.0,62,0.00,,,0.00,Weather View 32 v70,2013-03-03 07:15:00,
2013-03-03 02:20:00,32.0,20.4,29.93,NW,315,0.0,14.0,62,0.00,,,0.00,Weather View 32 v70,2013-03-03 07:20:00,
2013-03-03 02:25:00,32.0,20.4,29.93,NW,315,6.0,14.0,62,0.00,,,0.00,Weather View 32 v70,2013-03-03 07:25:00,
2013-03-03 02:30:00,32.0,19.3,29.93,NW,315,9.0,14.0,59,0.00,,,0.00,Weather View 32 v70,2013-03-03 07:30:00,
2013-03-03 02:35:00,32.0,19.3,29.93,NW,315,6.0,14.0,59,0.00,,,0.00,Weather View 32 v70,2013-03-03 07:35:00,
2013-03-03 02:40:00,32.0,18.9,29.93,NW,315,7.0,14.0,58,0.00,,,0.00,Weather View 32 v70,2013-03-03 07:40:00,
2013-03-03 02:45:00,32.0,19.3,29.93,NW,315,9.0,16.0,59,0.00,,,0.00,Weather View 32 v70,2013-03-03 07:45:00,
2013-03-03 02:50:00,32.0,18.9,29.92,NW,315,9.0,16.0,58,0.00,,,0.00,Weather View 32 v70,2013-03-03 07:50:00,
2013-03-03 02:55:00,32.0,18.9,29.92,NW,315,8.0,16.0,58,0.00,,,0.00,Weather View 32 v70,2013-03-03 07:55:00,
2013-03-03 03:00:00,31.0,18.3,29.92,WNW,292,9.0,16.0,59,0.00,,,0.00,Weather View 32 v70,2013-03-03 08:00:00,
2013-03-03 03:05:00,31.0,17.9,29.92,WNW,292,4.0,16.0,58,0.00,,,0.00,Weather View 32 v70,2013-03-03 08:05:00,
2013-03-03 03:10:00,31.0,17.5,29.92,NW,315,8.0,16.0,57,0.00,,,0.00,Weather View 32 v70,2013-03-03 08:10:00,
2013-03-03 03:15:00,31.0,17.9,29.92,NW,315,8.0,16.0,58,0.00,,,0.00,Weather View 32 v70,2013-03-03 08:15:00,
2013-03-03 03:20:00,31.0,17.9,29.92,WNW,292,6.0,16.0,58,0.00,,,0.00,Weather View 32 v70,2013-03-03 08:20:00,
2013-03-03 03:25:00,31.0,17.9,29.92,NW,315,7.0,16.0,58,0.00,,,0.00,Weather View 32 v70,2013-03-03 08:25:00,
2013-03-03 03:30:00,31.0,17.9,29.92,NNW,337,6.0,16.0,58,0.00,,,0.00,Weather View 32 v70,2013-03-03 08:30:00,
2013-03-03 03:35:00,31.0,18.7,29.92,NNW,337,4.0,16.0,60,0.00,,,0.00,Weather View 32 v70,2013-03-03 08:35:00,
2013-03-03 03:40:00,31.0,17.5,29.92,WNW,292,10.0,16.0,57,0.00,,,0.00,Weather View 32 v70,2013-03-03 08:40:00,
2013-03-03 03:45:00,31.0,17.5,29.92,WNW,292,6.0,16.0,57,0.00,,,0.00,Weather View 32 v70,2013-03-03 08:45:00,
2013-03-03 03:50:00,31.0,17.5,29.92,NW,315,3.0,16.0,57,0.00,,,0.00,Weather View 32 v70,2013-03-03 08:50:00,
2013-03-03 03:55:00,31.0,17.5,29.92,NW,315,10.0,16.0,57,0.00,,,0.00,Weather View 32 v70,2013-03-03 08:55:00,
2013-03-03 04:00:00,31.0,17.1,29.92,NNW,337,3.0,16.0,56,0.00,,,0.00,Weather View 32 v70,2013-03-03 09:00:00,
2013-03-03 04:05:00,31.0,17.1,29.92,NW,315,7.0,16.0,56,0.00,,,0.00,Weather View 32 v70,2013-03-03 09:05:00,
2013-03-03 04:10:00,30.0,16.2,29.92,NW,315,6.0,16.0,56,0.00,,,0.00,Weather View 32 v70,2013-03-03 09:10:00,
2013-03-03 04:15:00,30.0,16.2,29.92,WNW,292,5.0,16.0,56,0.00,,,0.00,Weather View 32 v70,2013-03-03 09:15:00,
2013-03-03 04:20:00,30.0,16.2,29.93,NNW,337,1.0,16.0,56,0.00,,,0.00,Weather View 32 v70,2013-03-03 09:20:00,
2013-03-03 04:25:00,30.0,16.6,29.93,NW,315,6.0,16.0,57,0.00,,,0.00,Weather View 32 v70,2013-03-03 09:25:00,
2013-03-03 04:30:00,30.0,16.6,29.93,NW,315,8.0,16.0,57,0.00,,,0.00,Weather View 32 v70,2013-03-03 09:30:00,
2013-03-03 04:35:00,30.0,16.2,29.93,NW,315,7.0,16.0,56,0.00,,,0.00,Weather View 32 v70,2013-03-03 09:35:00,
2013-03-03 04:41:00,30.0,17.0,29.93,NW,315,6.0,16.0,58,0.00,,,0.00,Weather View 32 v70,2013-03-03 09:41:00,
2013-03-03 04:46:00,30.0,17.0,29.93,NW,315,7.0,15.0,58,0.00,,,0.00,Weather View 32 v70,2013-03-03 09:46:00,
2013-03-03 04:51:00,29.0,16.1,29.93,NW,315,1.0,15.0,58,0.00,,,0.00,Weather View 32 v70,2013-03-03 09:51:00,
2013-03-03 04:56:00,29.0,16.5,29.93,NW,315,6.0,15.0,59,0.00,,,0.00,Weather View 32 v70,2013-03-03 09:56:00,
2013-03-03 05:01:00,29.0,16.5,29.94,West,270,10.0,15.0,59,0.00,,,0.00,Weather View 32 v70,2013-03-03 10:01:00,
2013-03-03 05:06:00,29.0,17.2,29.94,WNW,292,8.0,13.0,61,0.00,,,0.00,Weather View 32 v70,2013-03-03 10:06:00,
2013-03-03 05:11:00,29.0,17.2,29.94,NW,315,5.0,13.0,61,0.00,,,0.00,Weather View 32 v70,2013-03-03 10:11:00,
2013-03-03 05:16:00,29.0,18.0,29.94,NW,315,4.0,13.0,63,0.00,,,0.00,Weather View 32 v70,2013-03-03 10:16:00,
2013-03-03 05:21:00,29.0,18.0,29.94,NW,315,6.0,13.0,63,0.00,,,0.00,Weather View 32 v70,2013-03-03 10:21:00,
2013-03-03 05:26:00,29.0,18.0,29.94,WNW,292,6.0,13.0,63,0.00,,,0.00,Weather View 32 v70,2013-03-03 10:26:00,
2013-03-03 05:31:00,29.0,18.3,29.95,WNW,292,6.0,13.0,64,0.00,,,0.00,Weather View 32 v70,2013-03-03 10:31:00,
2013-03-03 05:36:00,29.0,17.6,29.95,WNW,292,7.0,17.0,62,0.00,,,0.00,Weather View 32 v70,2013-03-03 10:36:00,
2013-03-03 05:41:00,29.0,17.2,29.95,NW,315,7.0,17.0,61,0.00,,,0.00,Weather View 32 v70,2013-03-03 10:41:00,
2013-03-03 05:46:00,29.0,16.8,29.95,NNW,337,5.0,17.0,60,0.00,,,0.00,Weather View 32 v70,2013-03-03 10:46:00,
2013-03-03 05:51:00,29.0,16.5,29.95,NW,315,9.0,17.0,59,0.00,,,0.00,Weather View 32 v70,2013-03-03 10:51:00,
2013-03-03 05:56:00,29.0,16.8,29.95,NW,315,6.0,17.0,60,0.00,,,0.00,Weather View 32 v70,2013-03-03 10:56:00,
2013-03-03 06:01:00,29.0,17.2,29.95,WNW,292,6.0,17.0,61,0.00,,,0.00,Weather View 32 v70,2013-03-03 11:01:00,
2013-03-03 06:06:00,29.0,16.8,29.95,WNW,292,9.0,17.0,60,0.00,,,0.00,Weather View 32 v70,2013-03-03 11:06:00,
2013-03-03 06:11:00,28.0,16.3,29.95,WNW,292,2.0,17.0,61,0.00,,,0.00,Weather View 32 v70,2013-03-03 11:11:00,
2013-03-03 06:16:00,28.0,15.9,29.95,NW,315,6.0,17.0,60,0.00,,,0.00,Weather View 32 v70,2013-03-03 11:16:00,
2013-03-03 06:21:00,28.0,15.9,29.95,NW,315,6.0,17.0,60,0.00,,,0.00,Weather View 32 v70,2013-03-03 11:21:00,
2013-03-03 06:26:00,28.0,16.3,29.95,NW,315,6.0,17.0,61,0.00,,,0.00,Weather View 32 v70,2013-03-03 11:26:00,
2013-03-03 06:31:00,28.0,15.9,29.95,WNW,292,10.0,17.0,60,0.00,,,0.00,Weather View 32 v70,2013-03-03 11:31:00,
2013-03-03 06:36:00,28.0,16.3,29.95,NW,315,6.0,17.0,61,0.00,,,0.00,Weather View 32 v70,2013-03-03 11:36:00,
2013-03-03 06:41:00,28.0,16.3,29.95,WNW,292,7.0,12.0,61,0.00,,,0.00,Weather View 32 v70,2013-03-03 11:41:00,
2013-03-03 06:46:00,28.0,16.3,29.95,WNW,292,5.0,12.0,61,0.00,,,0.00,Weather View 32 v70,2013-03-03 11:46:00,
2013-03-03 06:51:00,28.0,16.7,29.96,WNW,292,5.0,12.0,62,0.00,,,0.00,Weather View 32 v70,2013-03-03 11:51:00,
2013-03-03 06:56:00,28.0,16.7,29.96,WNW,292,5.0,12.0,62,0.00,,,0.00,Weather View 32 v70,2013-03-03 11:56:00,
2013-03-03 07:01:00,28.0,17.0,29.96,WNW,292,6.0,12.0,63,0.00,,,0.00,Weather View 32 v70,2013-03-03 12:01:00,
2013-03-03 07:06:00,28.0,17.0,29.96,WNW,292,9.0,12.0,63,0.00,,,0.00,Weather View 32 v70,2013-03-03 12:06:00,
2013-03-03 07:11:00,28.0,17.4,29.96,NW,315,5.0,12.0,64,0.00,,,0.00,Weather View 32 v70,2013-03-03 12:11:00,
2013-03-03 07:16:00,28.0,17.4,29.96,NW,315,4.0,12.0,64,0.00,,,0.00,Weather View 32 v70,2013-03-03 12:16:00,
2013-03-03 07:21:00,28.0,17.4,29.96,WNW,292,7.0,12.0,64,0.00,,,0.00,Weather View 32 v70,2013-03-03 12:21:00,
2013-03-03 07:26:00,28.0,18.1,29.96,WNW,292,2.0,12.0,66,0.00,,,0.00,Weather View 32 v70,2013-03-03 12:26:00,
2013-03-03 07:31:00,28.0,17.8,29.97,WNW,292,2.0,12.0,65,0.00,,,0.00,Weather View 32 v70,2013-03-03 12:31:00,
2013-03-03 07:36:00,28.0,17.4,29.97,West,270,4.0,11.0,64,0.00,,,0.00,Weather View 32 v70,2013-03-03 12:36:00,
2013-03-03 07:41:00,28.0,17.4,29.97,WNW,292,6.0,11.0,64,0.00,,,0.00,Weather View 32 v70,2013-03-03 12:41:00,
2013-03-03 07:46:00,29.0,18.3,29.97,NW,315,4.0,11.0,64,0.00,,,0.00,Weather View 32 v70,2013-03-03 12:46:00,
2013-03-03 07:51:00,29.0,18.0,29.97,West,270,6.0,11.0,63,0.00,,,0.00,Weather View 32 v70,2013-03-03 12:51:00,
2013-03-03 07:56:00,30.0,18.9,29.97,WNW,292,7.0,12.0,63,0.00,,,0.00,Weather View 32 v70,2013-03-03 12:56:00,
2013-03-03 08:01:00,30.0,18.2,29.97,NNW,337,10.0,12.0,61,0.00,,,0.00,Weather View 32 v70,2013-03-03 13:01:00,
2013-03-03 08:06:00,31.0,19.1,29.97,WNW,292,4.0,13.0,61,0.00,,,0.00,Weather View 32 v70,2013-03-03 13:06:00,
2013-03-03 08:11:00,31.0,18.7,29.97,WNW,292,9.0,13.0,60,0.00,,,0.00,Weather View 32 v70,2013-03-03 13:11:00,
2013-03-03 08:16:00,31.0,18.7,29.97,West,270,6.0,16.0,60,0.00,,,0.00,Weather View 32 v70,2013-03-03 13:16:00,
2013-03-03 08:21:00,31.0,17.9,29.97,WNW,292,8.0,16.0,58,0.00,,,0.00,Weather View 32 v70,2013-03-03 13:21:00,
2013-03-03 08:26:00,31.0,17.9,29.97,WNW,292,6.0,16.0,58,0.00,,,0.00,Weather View 32 v70,2013-03-03 13:26:00,
2013-03-03 08:31:00,32.0,18.9,29.97,NW,315,3.0,16.0,58,0.00,,,0.00,Weather View 32 v70,2013-03-03 13:31:00,
2013-03-03 08:36:00,32.0,18.5,29.97,West,270,12.0,17.0,57,0.00,,,0.00,Weather View 32 v70,2013-03-03 13:36:00,
2013-03-03 08:41:00,32.0,18.9,29.97,West,270,7.0,17.0,58,0.00,,,0.00,Weather View 32 v70,2013-03-03 13:41:00,
2013-03-03 08:46:00,32.0,18.5,29.97,WSW,247,7.0,17.0,57,0.00,,,0.00,Weather View 32 v70,2013-03-03 13:46:00,
2013-03-03 08:51:00,32.0,18.5,29.97,NW,315,7.0,17.0,57,0.00,,,0.00,Weather View 32 v70,2013-03-03 13:51:00,
2013-03-03 08:56:00,33.0,19.4,29.97,NNW,337,10.0,17.0,57,0.00,,,0.00,Weather View 32 v70,2013-03-03 13:56:00,
2013-03-03 09:01:00,33.0,20.2,29.97,NW,315,0.0,17.0,59,0.00,,,0.00,Weather View 32 v70,2013-03-03 14:01:00,
2013-03-03 09:06:00,33.0,18.6,29.97,West,270,7.0,17.0,55,0.00,,,0.00,Weather View 32 v70,2013-03-03 14:06:00,
2013-03-03 09:11:00,34.0,19.5,29.96,NW,315,7.0,17.0,55,0.00,,,0.00,Weather View 32 v70,2013-03-03 14:11:00,
2013-03-03 09:16:00,34.0,19.5,29.96,NW,315,1.0,17.0,55,0.00,,,0.00,Weather View 32 v70,2013-03-03 14:16:00,
2013-03-03 09:21:00,34.0,19.5,29.96,WNW,292,1.0,17.0,55,0.00,,,0.00,Weather View 32 v70,2013-03-03 14:21:00,
2013-03-03 09:26:00,35.0,19.6,29.96,NNW,337,6.0,17.0,53,0.00,,,0.00,Weather View 32 v70,2013-03-03 14:26:00,
2013-03-03 09:31:00,35.0,19.6,29.95,North,360,6.0,17.0,53,0.00,,,0.00,Weather View 32 v70,2013-03-03 14:31:00,
2013-03-03 09:36:00,34.0,18.6,29.95,West,270,8.0,17.0,53,0.00,,,0.00,Weather View 32 v70,2013-03-03 14:36:00,
2013-03-03 09:41:00,34.0,19.1,29.95,NW,315,7.0,17.0,54,0.00,,,0.00,Weather View 32 v70,2013-03-03 14:41:00,
2013-03-03 09:46:00,33.0,17.7,29.95,WNW,292,2.0,18.0,53,0.00,,,0.00,Weather View 32 v70,2013-03-03 14:46:00,
2013-03-03 09:51:00,34.0,18.2,29.96,NNW,337,3.0,18.0,52,0.00,,,0.00,Weather View 32 v70,2013-03-03 14:51:00,
2013-03-03 09:56:00,35.0,19.1,29.96,NW,315,3.0,18.0,52,0.00,,,0.00,Weather View 32 v70,2013-03-03 14:56:00,
2013-03-03 10:01:00,35.0,19.1,29.96,West,270,10.0,18.0,52,0.00,,,0.00,Weather View 32 v70,2013-03-03 15:01:00,
2013-03-03 10:06:00,35.0,19.6,29.96,WSW,247,7.0,18.0,53,0.00,,,0.00,Weather View 32 v70,2013-03-03 15:06:00,
2013-03-03 10:11:00,35.0,18.7,29.95,West,270,8.0,18.0,51,0.00,,,0.00,Weather View 32 v70,2013-03-03 15:11:00,
2013-03-03 10:16:00,35.0,18.2,29.95,NW,315,7.0,18.0,50,0.00,,,0.00,Weather View 32 v70,2013-03-03 15:16:00,
2013-03-03 10:21:00,35.0,18.7,29.95,WNW,292,6.0,18.0,51,0.00,,,0.00,Weather View 32 v70,2013-03-03 15:21:00,
2013-03-03 10:26:00,35.0,18.2,29.95,West,270,10.0,18.0,50,0.00,,,0.00,Weather View 32 v70,2013-03-03 15:26:00,
2013-03-03 10:31:00,36.0,19.1,29.95,North,360,1.0,18.0,50,0.00,,,0.00,Weather View 32 v70,2013-03-03 15:31:00,
2013-03-03 10:36:00,35.0,18.7,29.95,WNW,292,6.0,18.0,51,0.00,,,0.00,Weather View 32 v70,2013-03-03 15:36:00,
2013-03-03 10:41:00,36.0,18.7,29.95,WNW,292,9.0,18.0,49,0.00,,,0.00,Weather View 32 v70,2013-03-03 15:41:00,
2013-03-03 10:46:00,36.0,19.6,29.95,WNW,292,8.0,17.0,51,0.00,,,0.00,Weather View 32 v70,2013-03-03 15:46:00,
2013-03-03 10:51:00,37.0,20.5,29.94,NW,315,9.0,17.0,51,0.00,,,0.00,Weather View 32 v70,2013-03-03 15:51:00,
2013-03-03 10:56:00,36.0,19.6,29.94,WNW,292,9.0,17.0,51,0.00,,,0.00,Weather View 32 v70,2013-03-03 15:56:00,
2013-03-03 11:01:00,36.0,19.6,29.95,NW,315,3.0,17.0,51,0.00,,,0.00,Weather View 32 v70,2013-03-03 16:01:00,
2013-03-03 11:06:00,37.0,21.0,29.95,West,270,8.0,17.0,52,0.00,,,0.00,Weather View 32 v70,2013-03-03 16:06:00,
2013-03-03 11:11:00,37.0,19.6,29.95,North,360,7.0,17.0,49,0.00,,,0.00,Weather View 32 v70,2013-03-03 16:11:00,
2013-03-03 11:16:00,36.0,18.2,29.95,WNW,292,8.0,17.0,48,0.00,,,0.00,Weather View 32 v70,2013-03-03 16:16:00,
2013-03-03 11:21:00,36.0,18.7,29.95,WNW,292,6.0,17.0,49,0.00,,,0.00,Weather View 32 v70,2013-03-03 16:21:00,
2013-03-03 11:26:00,37.0,19.1,29.95,North,360,12.0,17.0,48,0.00,,,0.00,Weather View 32 v70,2013-03-03 16:26:00,
2013-03-03 11:31:00,38.0,19.5,29.93,NNW,337,9.0,17.0,47,0.00,,,0.00,Weather View 32 v70,2013-03-03 16:31:00,
2013-03-03 11:36:00,38.0,20.0,29.93,NW,315,10.0,17.0,48,0.00,,,0.00,Weather View 32 v70,2013-03-03 16:36:00,
2013-03-03 11:41:00,37.0,19.1,29.93,WNW,292,6.0,20.0,48,0.00,,,0.00,Weather View 32 v70,2013-03-03 16:41:00,
2013-03-03 11:46:00,36.0,18.2,29.93,WNW,292,10.0,20.0,48,0.00,,,0.00,Weather View 32 v70,2013-03-03 16:46:00,
2013-03-03 11:51:00,37.0,20.1,29.94,NNW,337,0.0,20.0,50,0.00,,,0.00,Weather View 32 v70,2013-03-03 16:51:00,
2013-03-03 11:56:00,37.0,20.1,29.94,WSW,247,10.0,20.0,50,0.00,,,0.00,Weather View 32 v70,2013-03-03 16:56:00,
2013-03-03 12:01:00,36.0,18.2,29.93,WNW,292,7.0,20.0,48,0.00,,,0.00,Weather View 32 v70,2013-03-03 17:01:00,
2013-03-03 12:06:00,37.0,20.1,29.93,West,270,9.0,20.0,50,0.00,,,0.00,Weather View 32 v70,2013-03-03 17:06:00,
2013-03-03 12:11:00,37.0,19.6,29.93,West,270,4.0,20.0,49,0.00,,,0.00,Weather View 32 v70,2013-03-03 17:11:00,
2013-03-03 12:16:00,38.0,20.0,29.93,West,270,7.0,20.0,48,0.00,,,0.00,Weather View 32 v70,2013-03-03 17:16:00,
2013-03-03 12:21:00,38.0,19.5,29.91,West,270,10.0,20.0,47,0.00,,,0.00,Weather View 32 v70,2013-03-03 17:21:00,
2013-03-03 12:26:00,39.0,20.5,29.91,WNW,292,10.0,20.0,47,0.00,,,0.00,Weather View 32 v70,2013-03-03 17:26:00,
2013-03-03 12:31:00,39.0,20.9,29.91,WNW,292,10.0,20.0,48,0.00,,,0.00,Weather View 32 v70,2013-03-03 17:31:00,
2013-03-03 12:36:00,39.0,20.5,29.91,West,270,4.0,20.0,47,0.00,,,0.00,Weather View 32 v70,2013-03-03 17:36:00,
2013-03-03 12:41:00,39.0,19.9,29.90,WSW,247,9.0,19.0,46,0.00,,,0.00,Weather View 32 v70,2013-03-03 17:41:00,
2013-03-03 12:46:00,39.0,19.4,29.90,WNW,292,10.0,19.0,45,0.00,,,0.00,Weather View 32 v70,2013-03-03 17:46:00,
2013-03-03 12:51:00,39.0,19.9,29.90,NW,315,7.0,19.0,46,0.00,,,0.00,Weather View 32 v70,2013-03-03 17:51:00,
2013-03-03 12:56:00,39.0,19.9,29.90,WNW,292,7.0,19.0,46,0.00,,,0.00,Weather View 32 v70,2013-03-03 17:56:00,
2013-03-03 13:01:00,39.0,20.5,29.89,WNW,292,10.0,19.0,47,0.00,,,0.00,Weather View 32 v70,2013-03-03 18:01:00,
2013-03-03 13:06:00,39.0,19.9,29.89,West,270,9.0,19.0,46,0.00,,,0.00,Weather View 32 v70,2013-03-03 18:06:00,
2013-03-03 13:11:00,40.0,20.9,29.88,NW,315,0.0,19.0,46,0.00,,,0.00,Weather View 32 v70,2013-03-03 18:11:00,
2013-03-03 13:16:00,40.0,20.9,29.88,NNW,337,3.0,19.0,46,0.00,,,0.00,Weather View 32 v70,2013-03-03 18:16:00,
2013-03-03 13:21:00,40.0,20.9,29.88,West,270,9.0,19.0,46,0.00,,,0.00,Weather View 32 v70,2013-03-03 18:21:00,
2013-03-03 13:26:00,40.0,20.3,29.88,NW,315,7.0,19.0,45,0.00,,,0.00,Weather View 32 v70,2013-03-03 18:26:00,
2013-03-03 13:31:00,40.0,20.9,29.88,WNW,292,6.0,19.0,46,0.00,,,0.00,Weather View 32 v70,2013-03-03 18:31:00,
2013-03-03 13:36:00,41.0,21.3,29.88,NW,315,5.0,19.0,45,0.00,,,0.00,Weather View 32 v70,2013-03-03 18:36:00,
2013-03-03 13:41:00,41.0,21.3,29.87,West,270,9.0,19.0,45,0.00,,,0.00,Weather View 32 v70,2013-03-03 18:41:00,
2013-03-03 13:46:00,41.0,20.2,29.87,NW,315,6.0,19.0,43,0.00,,,0.00,Weather View 32 v70,2013-03-03 18:46:00,
2013-03-03 13:51:00,41.0,20.2,29.87,NW,315,13.0,19.0,43,0.00,,,0.00,Weather View 32 v70,2013-03-03 18:51:00,
2013-03-03 13:56:00,41.0,20.2,29.87,WNW,292,11.0,19.0,43,0.00,,,0.00,Weather View 32 v70,2013-03-03 18:56:00,
2013-03-03 14:01:00,41.0,19.6,29.87,NW,315,10.0,19.0,42,0.00,,,0.00,Weather View 32 v70,2013-03-03 19:01:00,
2013-03-03 14:06:00,41.0,19.1,29.87,NW,315,8.0,19.0,41,0.00,,,0.00,Weather View 32 v70,2013-03-03 19:06:00,
2013-03-03 14:11:00,41.0,19.1,29.86,NNW,337,2.0,19.0,41,0.00,,,0.00,Weather View 32 v70,2013-03-03 19:11:00,
2013-03-03 14:16:00,42.0,21.1,29.86,NNW,337,0.0,19.0,43,0.00,,,0.00,Weather View 32 v70,2013-03-03 19:16:00,
2013-03-03 14:21:00,42.0,21.1,29.85,NW,315,9.0,19.0,43,0.00,,,0.00,Weather View 32 v70,2013-03-03 19:21:00,
2013-03-03 14:26:00,42.0,20.0,29.85,NW,315,10.0,17.0,41,0.00,,,0.00,Weather View 32 v70,2013-03-03 19:26:00,
2013-03-03 14:31:00,42.0,20.5,29.85,NNW,337,2.0,17.0,42,0.00,,,0.00,Weather View 32 v70,2013-03-03 19:31:00,
2013-03-03 14:36:00,41.0,20.2,29.85,WNW,292,9.0,17.0,43,0.00,,,0.00,Weather View 32 v70,2013-03-03 19:36:00,
2013-03-03 14:41:00,42.0,21.1,29.85,West,270,7.0,17.0,43,0.00,,,0.00,Weather View 32 v70,2013-03-03 19:41:00,
2013-03-03 14:46:00,42.0,20.5,29.85,West,270,5.0,17.0,42,0.00,,,0.00,Weather View 32 v70,2013-03-03 19:46:00,
2013-03-03 14:51:00,42.0,20.0,29.85,NW,315,7.0,18.0,41,0.00,,,0.00,Weather View 32 v70,2013-03-03 19:51:00,
2013-03-03 14:57:00,42.0,20.5,29.85,WSW,247,15.0,20.0,42,0.00,,,0.00,Weather View 32 v70,2013-03-03 19:57:00,
2013-03-03 15:02:00,42.0,20.0,29.85,WNW,292,9.0,20.0,41,0.00,,,0.00,Weather View 32 v70,2013-03-03 20:02:00,
2013-03-03 15:07:00,41.0,19.6,29.85,WNW,292,9.0,20.0,42,0.00,,,0.00,Weather View 32 v70,2013-03-03 20:07:00,
2013-03-03 15:12:00,42.0,20.5,29.86,NNW,337,11.0,20.0,42,0.00,,,0.00,Weather View 32 v70,2013-03-03 20:12:00,
2013-03-03 15:17:00,42.0,20.0,29.86,NW,315,11.0,20.0,41,0.00,,,0.00,Weather View 32 v70,2013-03-03 20:17:00,
2013-03-03 15:22:00,41.0,19.1,29.87,NW,315,9.0,20.0,41,0.00,,,0.00,Weather View 32 v70,2013-03-03 20:22:00,
2013-03-03 15:27:00,41.0,19.1,29.87,NW,315,10.0,20.0,41,0.00,,,0.00,Weather View 32 v70,2013-03-03 20:27:00,
2013-03-03 15:32:00,42.0,20.5,29.87,WNW,292,12.0,20.0,42,0.00,,,0.00,Weather View 32 v70,2013-03-03 20:32:00,
2013-03-03 15:37:00,41.0,19.1,29.87,WNW,292,7.0,20.0,41,0.00,,,0.00,Weather View 32 v70,2013-03-03 20:37:00,
2013-03-03 15:42:00,41.0,19.1,29.87,NW,315,10.0,20.0,41,0.00,,,0.00,Weather View 32 v70,2013-03-03 20:42:00,
2013-03-03 15:47:00,42.0,20.0,29.87,WNW,292,14.0,20.0,41,0.00,,,0.00,Weather View 32 v70,2013-03-03 20:47:00,
2013-03-03 15:52:00,41.0,19.1,29.87,West,270,10.0,20.0,41,0.00,,,0.00,Weather View 32 v70,2013-03-03 20:52:00,
2013-03-03 15:57:00,41.0,19.1,29.87,North,360,9.0,18.0,41,0.00,,,0.00,Weather View 32 v70,2013-03-03 20:57:00,
2013-03-03 16:02:00,41.0,18.5,29.87,NW,315,7.0,18.0,40,0.00,,,0.00,Weather View 32 v70,2013-03-03 21:02:00,
2013-03-03 16:07:00,42.0,20.0,29.87,NNW,337,12.0,18.0,41,0.00,,,0.00,Weather View 32 v70,2013-03-03 21:07:00,
2013-03-03 16:12:00,41.0,19.1,29.87,WNW,292,10.0,18.0,41,0.00,,,0.00,Weather View 32 v70,2013-03-03 21:12:00,
2013-03-03 16:17:00,41.0,19.1,29.87,NW,315,2.0,18.0,41,0.00,,,0.00,Weather View 32 v70,2013-03-03 21:17:00,
2013-03-03 16:22:00,41.0,19.1,29.87,NW,315,8.0,18.0,41,0.00,,,0.00,Weather View 32 v70,2013-03-03 21:22:00,
2013-03-03 16:27:00,41.0,19.1,29.87,WNW,292,7.0,18.0,41,0.00,,,0.00,Weather View 32 v70,2013-03-03 21:27:00,
2013-03-03 16:32:00,41.0,19.1,29.88,NW,315,12.0,18.0,41,0.00,,,0.00,Weather View 32 v70,2013-03-03 21:32:00,
2013-03-03 16:37:00,40.0,18.7,29.88,WNW,292,12.0,18.0,42,0.00,,,0.00,Weather View 32 v70,2013-03-03 21:37:00,
2013-03-03 16:42:00,40.0,18.7,29.88,WNW,292,6.0,19.0,42,0.00,,,0.00,Weather View 32 v70,2013-03-03 21:42:00,
2013-03-03 16:47:00,40.0,18.2,29.88,NNW,337,12.0,19.0,41,0.00,,,0.00,Weather View 32 v70,2013-03-03 21:47:00,
2013-03-03 16:52:00,40.0,18.2,29.88,WNW,292,9.0,19.0,41,0.00,,,0.00,Weather View 32 v70,2013-03-03 21:52:00,
2013-03-03 16:57:00,40.0,18.7,29.88,WNW,292,7.0,19.0,42,0.00,,,0.00,Weather View 32 v70,2013-03-03 21:57:00,
2013-03-03 17:02:00,39.0,18.4,29.89,WNW,292,6.0,19.0,43,0.00,,,0.00,Weather View 32 v70,2013-03-03 22:02:00,
2013-03-03 17:07:00,39.0,18.4,29.89,West,270,15.0,22.0,43,0.00,,,0.00,Weather View 32 v70,2013-03-03 22:07:00,
2013-03-03 17:12:00,39.0,18.4,29.89,NW,315,6.0,22.0,43,0.00,,,0.00,Weather View 32 v70,2013-03-03 22:12:00,
2013-03-03 17:17:00,39.0,18.4,29.89,NW,315,3.0,22.0,43,0.00,,,0.00,Weather View 32 v70,2013-03-03 22:17:00,
2013-03-03 17:22:00,38.0,17.5,29.89,North,360,3.0,22.0,43,0.00,,,0.00,Weather View 32 v70,2013-03-03 22:22:00,
2013-03-03 17:27:00,38.0,18.0,29.89,WNW,292,6.0,22.0,44,0.00,,,0.00,Weather View 32 v70,2013-03-03 22:27:00,
2013-03-03 17:32:00,38.0,17.5,29.90,WNW,292,3.0,22.0,43,0.00,,,0.00,Weather View 32 v70,2013-03-03 22:32:00,
2013-03-03 17:37:00,38.0,17.5,29.90,WNW,292,3.0,22.0,43,0.00,,,0.00,Weather View 32 v70,2013-03-03 22:37:00,
2013-03-03 17:42:00,38.0,17.5,29.90,NNW,337,6.0,22.0,43,0.00,,,0.00,Weather View 32 v70,2013-03-03 22:42:00,
2013-03-03 17:47:00,38.0,17.5,29.90,NNW,337,7.0,22.0,43,0.00,,,0.00,Weather View 32 v70,2013-03-03 22:47:00,
2013-03-03 17:52:00,38.0,18.5,29.91,WNW,292,5.0,22.0,45,0.00,,,0.00,Weather View 32 v70,2013-03-03 22:52:00,
2013-03-03 17:57:00,38.0,18.5,29.91,WNW,292,9.0,22.0,45,0.00,,,0.00,Weather View 32 v70,2013-03-03 22:57:00,
2013-03-03 18:02:00,38.0,19.0,29.91,NNW,337,3.0,22.0,46,0.00,,,0.00,Weather View 32 v70,2013-03-03 23:02:00,
2013-03-03 18:07:00,37.0,17.6,29.91,NW,315,7.0,21.0,45,0.00,,,0.00,Weather View 32 v70,2013-03-03 23:07:00,
2013-03-03 18:12:00,37.0,18.1,29.91,WNW,292,7.0,21.0,46,0.00,,,0.00,Weather View 32 v70,2013-03-03 23:12:00,
2013-03-03 18:17:00,37.0,18.1,29.91,West,270,13.0,21.0,46,0.00,,,0.00,Weather View 32 v70,2013-03-03 23:17:00,
2013-03-03 18:22:00,36.0,16.7,29.92,WNW,292,9.0,19.0,45,0.00,,,0.00,Weather View 32 v70,2013-03-03 23:22:00,
2013-03-03 18:27:00,36.0,16.7,29.92,NW,315,6.0,19.0,45,0.00,,,0.00,Weather View 32 v70,2013-03-03 23:27:00,
2013-03-03 18:32:00,36.0,16.7,29.92,NW,315,7.0,20.0,45,0.00,,,0.00,Weather View 32 v70,2013-03-03 23:32:00,
2013-03-03 18:37:00,35.0,16.3,29.92,NW,315,6.0,20.0,46,0.00,,,0.00,Weather View 32 v70,2013-03-03 23:37:00,
2013-03-03 18:42:00,35.0,16.3,29.93,WNW,292,6.0,20.0,46,0.00,,,0.00,Weather View 32 v70,2013-03-03 23:42:00,
2013-03-03 18:47:00,35.0,16.3,29.93,WNW,292,6.0,20.0,46,0.00,,,0.00,Weather View 32 v70,2013-03-03 23:47:00,
2013-03-03 18:52:00,35.0,16.8,29.93,NW,315,8.0,20.0,47,0.00,,,0.00,Weather View 32 v70,2013-03-03 23:52:00,
2013-03-03 18:57:00,35.0,16.3,29.93,NW,315,7.0,20.0,46,0.00,,,0.00,Weather View 32 v70,2013-03-03 23:57:00,
2013-03-03 19:02:00,34.0,15.9,29.93,NW,315,7.0,20.0,47,0.00,,,0.00,Weather View 32 v70,2013-03-04 00:02:00,
2013-03-03 19:07:00,34.0,16.4,29.93,NW,315,3.0,20.0,48,0.00,,,0.00,Weather View 32 v70,2013-03-04 00:07:00,
2013-03-03 19:12:00,34.0,16.4,29.95,NW,315,3.0,20.0,48,0.00,,,0.00,Weather View 32 v70,2013-03-04 00:12:00,
2013-03-03 19:17:00,34.0,16.4,29.95,NW,315,6.0,20.0,48,0.00,,,0.00,Weather View 32 v70,2013-03-04 00:17:00,
2013-03-03 19:22:00,34.0,16.8,29.95,NW,315,5.0,20.0,49,0.00,,,0.00,Weather View 32 v70,2013-03-04 00:22:00,
2013-03-03 19:27:00,34.0,17.3,29.95,NW,315,5.0,20.0,50,0.00,,,0.00,Weather View 32 v70,2013-03-04 00:27:00,
2013-03-03 19:32:00,34.0,17.3,29.95,WNW,292,7.0,15.0,50,0.00,,,0.00,Weather View 32 v70,2013-03-04 00:32:00,
2013-03-03 19:37:00,34.0,17.3,29.95,WNW,292,11.0,15.0,50,0.00,,,0.00,Weather View 32 v70,2013-03-04 00:37:00,
2013-03-03 19:42:00,34.0,17.3,29.96,WNW,292,7.0,15.0,50,0.00,,,0.00,Weather View 32 v70,2013-03-04 00:42:00,
2013-03-03 19:47:00,33.0,16.8,29.96,NW,315,3.0,15.0,51,0.00,,,0.00,Weather View 32 v70,2013-03-04 00:47:00,
2013-03-03 19:52:00,33.0,16.4,29.96,WNW,292,11.0,15.0,50,0.00,,,0.00,Weather View 32 v70,2013-03-04 00:52:00,
2013-03-03 19:57:00,33.0,16.8,29.96,West,270,4.0,15.0,51,0.00,,,0.00,Weather View 32 v70,2013-03-04 00:57:00,
2013-03-03 20:02:00,33.0,16.8,29.97,NW,315,9.0,15.0,51,0.00,,,0.00,Weather View 32 v70,2013-03-04 01:02:00,
2013-03-03 20:07:00,33.0,16.4,29.97,WNW,292,9.0,15.0,50,0.00,,,0.00,Weather View 32 v70,2013-03-04 01:07:00,
2013-03-03 20:12:00,33.0,16.8,29.97,WNW,292,6.0,15.0,51,0.00,,,0.00,Weather View 32 v70,2013-03-04 01:12:00,
2013-03-03 20:17:00,33.0,16.8,29.97,NW,315,6.0,15.0,51,0.00,,,0.00,Weather View 32 v70,2013-03-04 01:17:00,
2013-03-03 20:22:00,33.0,16.4,29.97,NW,315,10.0,15.0,50,0.00,,,0.00,Weather View 32 v70,2013-03-04 01:22:00,
2013-03-03 20:27:00,33.0,16.8,29.97,West,270,7.0,15.0,51,0.00,,,0.00,Weather View 32 v70,2013-03-04 01:27:00,
2013-03-03 20:32:00,32.0,16.8,29.97,WNW,292,9.0,15.0,53,0.00,,,0.00,Weather View 32 v70,2013-03-04 01:32:00,
2013-03-03 20:37:00,32.0,15.9,29.97,WNW,292,9.0,15.0,51,0.00,,,0.00,Weather View 32 v70,2013-03-04 01:37:00,
2013-03-03 20:42:00,32.0,16.4,29.97,WNW,292,5.0,15.0,52,0.00,,,0.00,Weather View 32 v70,2013-03-04 01:42:00,
2013-03-03 20:47:00,32.0,16.4,29.97,West,270,8.0,15.0,52,0.00,,,0.00,Weather View 32 v70,2013-03-04 01:47:00,
2013-03-03 20:52:00,32.0,15.9,29.99,WNW,292,9.0,15.0,51,0.00,,,0.00,Weather View 32 v70,2013-03-04 01:52:00,
2013-03-03 20:57:00,32.0,16.4,29.99,WNW,292,7.0,15.0,52,0.00,,,0.00,Weather View 32 v70,2013-03-04 01:57:00,
2013-03-03 21:02:00,32.0,16.4,29.99,West,270,8.0,15.0,52,0.00,,,0.00,Weather View 32 v70,2013-03-04 02:02:00,
2013-03-03 21:07:00,32.0,16.4,29.99,WNW,292,5.0,15.0,52,0.00,,,0.00,Weather View 32 v70,2013-03-04 02:07:00,
2013-03-03 21:12:00,32.0,15.9,29.99,West,270,11.0,15.0,51,0.00,,,0.00,Weather View 32 v70,2013-03-04 02:12:00,
2013-03-03 21:17:00,32.0,15.9,29.99,WNW,292,9.0,15.0,51,0.00,,,0.00,Weather View 32 v70,2013-03-04 02:17:00,
2013-03-03 21:22:00,31.0,15.4,29.99,NW,315,6.0,15.0,52,0.00,,,0.00,Weather View 32 v70,2013-03-04 02:22:00,
2013-03-03 21:27:00,31.0,15.4,29.99,WNW,292,10.0,15.0,52,0.00,,,0.00,Weather View 32 v70,2013-03-04 02:27:00,
2013-03-03 21:32:00,31.0,15.4,29.99,WNW,292,10.0,15.0,52,0.00,,,0.00,Weather View 32 v70,2013-03-04 02:32:00,
2013-03-03 21:37:00,31.0,15.4,29.99,WNW,292,4.0,15.0,52,0.00,,,0.00,Weather View 32 v70,2013-03-04 02:37:00,
2013-03-03 21:42:00,31.0,15.4,29.99,WNW,292,7.0,15.0,52,0.00,,,0.00,Weather View 32 v70,2013-03-04 02:42:00,
2013-03-03 21:47:00,31.0,15.9,29.99,WNW,292,7.0,15.0,53,0.00,,,0.00,Weather View 32 v70,2013-03-04 02:47:00,
2013-03-03 21:52:00,31.0,15.9,29.99,WNW,292,6.0,15.0,53,0.00,,,0.00,Weather View 32 v70,2013-03-04 02:52:00,
2013-03-03 21:57:00,31.0,15.9,29.99,WNW,292,9.0,15.0,53,0.00,,,0.00,Weather View 32 v70,2013-03-04 02:57:00,
2013-03-03 22:02:00,31.0,15.9,30.00,WNW,292,10.0,15.0,53,0.00,,,0.00,Weather View 32 v70,2013-03-04 03:02:00,
2013-03-03 22:07:00,31.0,15.9,30.00,WNW,292,10.0,16.0,53,0.00,,,0.00,Weather View 32 v70,2013-03-04 03:07:00,
2013-03-03 22:12:00,31.0,15.9,30.00,WNW,292,7.0,16.0,53,0.00,,,0.00,Weather View 32 v70,2013-03-04 03:12:00,
2013-03-03 22:17:00,31.0,15.4,30.00,WNW,292,8.0,16.0,52,0.00,,,0.00,Weather View 32 v70,2013-03-04 03:17:00,
2013-03-03 22:22:00,31.0,15.4,30.00,NW,315,6.0,19.0,52,0.00,,,0.00,Weather View 32 v70,2013-03-04 03:22:00,
2013-03-03 22:27:00,31.0,15.4,30.00,West,270,9.0,19.0,52,0.00,,,0.00,Weather View 32 v70,2013-03-04 03:27:00,
2013-03-03 22:32:00,31.0,15.4,30.00,West,270,9.0,19.0,52,0.00,,,0.00,Weather View 32 v70,2013-03-04 03:32:00,
2013-03-03 22:37:00,30.0,14.5,30.00,NW,315,6.0,19.0,52,0.00,,,0.00,Weather View 32 v70,2013-03-04 03:37:00,
2013-03-03 22:42:00,30.0,14.9,30.01,WNW,292,6.0,19.0,53,0.00,,,0.00,Weather View 32 v70,2013-03-04 03:42:00,
2013-03-03 22:47:00,30.0,14.9,30.01,West,270,10.0,19.0,53,0.00,,,0.00,Weather View 32 v70,2013-03-04 03:47:00,
2013-03-03 22:52:00,30.0,15.4,30.01,West,270,4.0,19.0,54,0.00,,,0.00,Weather View 32 v70,2013-03-04 03:52:00,
2013-03-03 22:57:00,30.0,14.9,30.01,WNW,292,7.0,19.0,53,0.00,,,0.00,Weather View 32 v70,2013-03-04 03:57:00,
2013-03-03 23:02:00,30.0,14.9,30.01,WNW,292,6.0,19.0,53,0.00,,,0.00,Weather View 32 v70,2013-03-04 04:02:00,
2013-03-03 23:07:00,30.0,15.4,30.01,WNW,292,14.0,19.0,54,0.00,,,0.00,Weather View 32 v70,2013-03-04 04:07:00,
2013-03-03 23:13:00,30.0,15.4,30.01,NW,315,9.0,19.0,54,0.00,,,0.00,Weather View 32 v70,2013-03-04 04:13:00,
2013-03-03 23:18:00,30.0,14.5,30.01,NNW,337,13.0,20.0,52,0.00,,,0.00,Weather View 32 v70,2013-03-04 04:18:00,
2013-03-03 23:23:00,30.0,14.5,30.01,NW,315,13.0,22.0,52,0.00,,,0.00,Weather View 32 v70,2013-03-04 04:23:00,
2013-03-03 23:28:00,30.0,14.1,30.01,NNW,337,8.0,22.0,51,0.00,,,0.00,Weather View 32 v70,2013-03-04 04:28:00,
2013-03-03 23:33:00,30.0,13.6,30.01,NNW,337,6.0,22.0,50,0.00,,,0.00,Weather View 32 v70,2013-03-04 04:33:00,
2013-03-03 23:38:00,30.0,13.6,30.01,NW,315,6.0,22.0,50,0.00,,,0.00,Weather View 32 v70,2013-03-04 04:38:00,
2013-03-03 23:43:00,30.0,14.1,30.01,NW,315,7.0,22.0,51,0.00,,,0.00,Weather View 32 v70,2013-03-04 04:43:00,
2013-03-03 23:48:00,29.0,13.1,30.01,NW,315,9.0,22.0,51,0.00,,,0.00,Weather View 32 v70,2013-03-04 04:48:00,
2013-03-03 23:53:00,29.0,13.1,30.01,NW,315,7.0,22.0,51,0.00,,,0.00,Weather View 32 v70,2013-03-04 04:53:00,
2013-03-03 23:58:00,29.0,13.6,30.01,NW,315,3.0,22.0,52,0.00,,,0.00,Weather View 32 v70,2013-03-04 04:58:00,